FW1396 Weather Reports


Display with metric or nautical units.
time (UTC)temp
F
wind
direction
speed
MPH
gust
MPH
rain 1hr
in
rain 24hr
in
rain mn
in
humidity
%
barometer
mb
20260905004341 90 306 0.0 2.0 0.00 0.00 0.00 65 996.3
20260905003842 91 306 1.0 2.0 0.00 0.00 0.00 64 996.4
20260905003340 91 306 1.0 2.0 0.00 0.00 0.00 64 996.4
20260905002842 91 306 0.0 1.0 0.00 0.00 0.00 63 996.2
20260905002338 91 306 0.0 0.0 0.00 0.00 0.00 61 996.4
20260905001840 0 0.0 0.0 0.00 0.00 0.00 996.4
20260905001339 92 306 0.0 1.0 0.00 0.00 0.00 61 996.4
20260905000838 92 306 0.0 2.0 0.00 0.00 0.00 61 996.4
20260905000340 92 306 1.0 3.0 0.00 0.00 0.00 61 996.4
20260904235837 92 168 1.0 3.0 0.00 0.00 0.00 60 996.4
20260904235607 92 204 2.0 3.0 0.00 0.00 0.00 60 996.3
20260904234837 92 204 1.0 3.0 0.00 0.00 0.00 60 996.3
20260904234337 92 243 2.0 3.0 0.00 0.00 0.00 60 996.4
20260904233837 92 243 1.0 2.0 0.00 0.00 0.00 60 996.3
20260904233337 92 243 0.0 4.0 0.00 0.00 0.00 59 996.4
20260904232837 92 243 2.0 4.0 0.00 0.00 0.00 59 996.2
20260904232336 92 221 3.0 4.0 0.00 0.00 0.00 59 996.3
20260904231836 92 200 1.0 5.0 0.00 0.00 0.00 59 996.3
20260904231335 92 200 1.0 5.0 0.00 0.00 0.00 58 996.3
20260904230836 92 223 3.0 5.0 0.00 0.00 0.00 58 996.2
20260904230337 92 230 3.0 4.0 0.00 0.00 0.00 58 996.2
20260904225835 92 230 3.0 9.0 0.00 0.00 0.00 58 996.2
20260904225334 92 250 3.0 10.0 0.00 0.00 0.00 58 996.2
20260904224834 92 219 6.0 10.0 0.00 0.00 0.00 58 996.2
20260904224335 92 204 6.0 10.0 0.00 0.00 0.00 57 996.2
20260904224106 93 226 5.0 10.0 0.00 0.00 0.00 56 996.2
20260904223333 93 210 6.0 12.0 0.00 0.00 0.00 55 996.2
20260904222835 94 216 6.0 12.0 0.00 0.00 0.00 55 996.2
20260904222335 94 257 5.0 10.0 0.00 0.00 0.00 57 996.2
20260904222107 95 257 4.0 9.0 0.00 0.00 0.00 56 996.2
20260904221336 95 230 5.0 12.0 0.00 0.00 0.00 55 996.4
20260904220834 95 169 4.0 12.0 0.00 0.00 0.00 55 996.2
20260904220333 95 185 6.0 13.0 0.00 0.00 0.00 55 996.4
20260904215834 96 216 6.0 13.0 0.00 0.00 0.00 54 996.4
20260904215330 96 254 5.0 17.0 0.00 0.00 0.00 52 996.4
20260904214834 97 257 13.0 17.0 0.00 0.00 0.00 51 996.4
20260904214337 98 207 7.0 11.0 0.00 0.00 0.00 50 996.3
20260904213833 98 212 5.0 7.0 0.00 0.00 0.00 50 996.4
20260904213604 99 200 4.0 6.0 0.00 0.00 0.00 49 996.5
20260904213104 99 158 2.0 5.0 0.00 0.00 0.00 48 996.4
20260904212604 99 223 3.0 9.0 0.00 0.00 0.00 47 996.3
20260904211833 99 161 3.0 9.0 0.00 0.00 0.00 48 996.2
20260904211333 99 113 1.0 6.0 0.00 0.00 0.00 48 996.2
20260904210833 99 109 3.0 6.0 0.00 0.00 0.00 47 996.4
20260904210334 0 0.0 0.0 0.00 0.00 0.00 996.4
20260904205832 0 0.0 0.0 0.00 0.00 0.00 996.5
20260904205330 0 0.0 0.0 0.00 0.00 0.00 996.5
20260904204829 102 224 3.0 7.0 0.00 0.00 0.00 45 996.5
20260904204328 102 224 3.0 7.0 0.00 0.00 0.00 45 996.4
20260904203828 102 71 1.0 5.0 0.00 0.00 0.00 45 996.5
20260904203328 102 154 3.0 10.0 0.00 0.00 0.00 43 996.6
20260904202827 101 111 3.0 11.0 0.00 0.00 0.00 43 996.5
20260904202328 102 247 7.0 11.0 0.00 0.00 0.00 43 996.6
20260904201826 101 209 2.0 3.0 0.00 0.00 0.00 44 996.5
20260904201326 0 0.0 0.0 0.00 0.00 0.00 996.5
20260904200825 0 0.0 0.0 0.00 0.00 0.00 996.7
20260904200325 0 0.0 0.0 0.00 0.00 0.00 996.8
20260904195825 0 0.0 0.0 0.00 0.00 0.00 996.8
20260904195322 101 233 4.0 11.0 0.00 0.00 0.00 45 996.9
20260904194821 101 233 4.0 11.0 0.00 0.00 0.00 45 997.0
20260904194320 101 197 2.0 7.0 0.00 0.00 0.00 45 997.0
20260904193820 100 274 4.0 7.0 0.00 0.00 0.00 45 997.1
20260904193320 0 0.0 0.0 0.00 0.00 0.00 997.3
20260904192819 0 0.0 0.0 0.00 0.00 0.00 997.2
20260904191817 100 237 2.0 4.0 0.00 0.00 0.00 48 997.4
20260904191316 100 237 2.0 4.0 0.00 0.00 0.00 48 997.5
20260904190814 100 100 2.0 4.0 0.00 0.00 0.00 48 997.6
20260904190314 100 230 1.0 5.0 0.00 0.00 0.00 47 997.7
20260904185815 100 258 1.0 7.0 0.00 0.00 0.00 47 997.7
20260904185316 99 254 4.0 7.0 0.00 0.00 0.00 47 997.8
20260904184815 99 245 3.0 4.0 0.00 0.00 0.00 47 997.8
20260904184315 99 330 2.0 5.0 0.00 0.00 0.00 47 997.8
20260904183817 99 327 3.0 5.0 0.00 0.00 0.00 48 997.9
20260904183315 99 264 1.0 3.0 0.00 0.00 0.00 48 998.0
20260904182814 99 264 2.0 3.0 0.00 0.00 0.00 48 998.0
20260904182315 100 262 1.0 3.0 0.00 0.00 0.00 47 998.1
20260904181814 100 262 1.0 3.0 0.00 0.00 0.00 47 998.2
20260904181313 100 262 2.0 4.0 0.00 0.00 0.00 48 998.3
20260904180812 99 212 2.0 4.0 0.00 0.00 0.00 48 998.2
20260904180312 98 227 1.0 4.0 0.00 0.00 0.00 50 998.3
20260904175813 98 94 1.0 5.0 0.00 0.00 0.00 50 998.4
20260904175543 98 62 3.0 5.0 0.00 0.00 0.00 50 998.4
20260904174813 98 248 3.0 5.0 0.00 0.00 0.00 51 998.5
20260904174313 98 221 2.0 4.0 0.00 0.00 0.00 51 998.5
20260904173812 98 221 2.0 5.0 0.00 0.00 0.00 51 998.7
20260904173315 98 193 3.0 5.0 0.00 0.00 0.00 52 998.7
20260904172812 97 87 2.0 5.0 0.00 0.00 0.00 52 998.8
20260904172310 97 257 3.0 5.0 0.00 0.00 0.00 53 998.9
20260904171811 97 251 4.0 6.0 0.00 0.00 0.00 53 999.0
20260904171311 97 238 4.0 6.0 0.00 0.00 0.00 54 999.0
20260904170811 96 257 1.0 4.0 0.00 0.00 0.00 55 999.0
20260904170311 96 257 3.0 7.0 0.00 0.00 0.00 54 999.1
20260904165810 96 261 4.0 7.0 0.00 0.00 0.00 54 999.3
20260904165543 96 252 2.0 9.0 0.00 0.00 0.00 55 999.3
20260904165041 96 185 5.0 11.0 0.00 0.00 0.00 54 999.2
20260904164310 96 250 2.0 11.0 0.00 0.00 0.00 54 999.3
20260904163810 96 231 2.0 9.0 0.00 0.00 0.00 54 999.4
20260904163312 96 226 5.0 9.0 0.00 0.00 0.00 54 999.5
20260904162809 96 244 4.0 7.0 0.00 0.00 0.00 55 999.5
20260904162308 96 269 4.0 6.0 0.00 0.00 0.00 55 999.4
20260904161809 96 103 2.0 4.0 0.00 0.00 0.00 57 999.4
20260904161308 96 161 2.0 4.0 0.00 0.00 0.00 58 999.4
20260904161040 95 97 2.0 7.0 0.00 0.00 0.00 58 999.4
20260904160541 95 224 4.0 7.0 0.00 0.00 0.00 57 999.5
20260904155811 95 195 0.0 0.0 0.00 0.00 0.00 59 999.5
20260904155308 94 0 0.0 0.0 0.00 0.00 0.00 60 999.5
20260904154809 93 141 0.0 0.0 0.00 0.00 0.00 61 999.5
20260904154309 93 213 0.0 0.0 0.00 0.00 0.00 62 999.5
20260904154039 92 213 0.0 0.0 0.00 0.00 0.00 64 999.5
20260904153309 91 213 0.0 0.0 0.00 0.00 0.00 64 999.6
20260904153039 90 220 0.0 0.0 0.00 0.00 0.00 66 999.6
20260904152309 90 175 0.0 0.0 0.00 0.00 0.00 67 999.7
20260904151807 89 175 0.0 0.0 0.00 0.00 0.00 67 999.7
20260904151307 88 159 0.0 0.0 0.00 0.00 0.00 68 999.7
20260904150807 88 231 0.0 0.0 0.00 0.00 0.00 69 999.7
20260904150308 87 237 0.0 0.0 0.00 0.00 0.00 69 999.6
20260904145808 87 237 0.0 0.0 0.00 0.00 0.00 70 999.7
20260904145307 87 216 0.0 0.0 0.00 0.00 0.00 71 999.7
20260904145041 86 210 0.0 0.0 0.00 0.00 0.00 72 999.6
20260904144308 85 210 0.0 0.0 0.00 0.00 0.00 72 999.6
20260904144038 85 210 0.0 0.0 0.00 0.00 0.00 73 999.6
20260904143306 84 209 0.0 0.0 0.00 0.00 0.00 76 999.6
20260904142806 83 209 0.0 0.0 0.00 0.00 0.00 75 999.5
20260904142540 83 233 0.0 0.0 0.00 0.00 0.00 78 999.5
20260904141807 0 231 0.0 0.0 0.00 0.00 0.00 999.5
20260904141307 0 0.0 0.0 0.00 0.00 0.00 999.5
20260904140805 0 0.0 0.0 0.00 0.00 0.00 999.5
20260904140306 0 0.0 0.0 0.00 0.00 0.00 999.4
20260904135802 0 0.0 0.0 0.00 0.00 0.00 999.5
20260904135305 0 0.0 0.0 0.00 0.00 0.00 999.5
20260904135031 78 173 0.0 0.0 0.00 0.00 0.00 85 999.5
20260904134306 78 173 0.0 0.0 0.00 0.00 0.00 85 999.5
20260904133759 77 173 0.0 0.0 0.00 0.00 0.00 85 999.6
20260904133259 77 173 0.0 0.0 0.00 0.00 0.00 85 999.5
20260904132758 76 173 0.0 0.0 0.00 0.00 0.00 88 999.5
20260904132258 76 173 0.0 0.0 0.00 0.00 0.00 89 999.6
20260904131759 75 173 0.0 0.0 0.00 0.00 0.00 89 999.6
20260904131257 75 173 0.0 0.0 0.00 0.00 0.00 89 999.5
20260904130758 74 173 0.0 0.0 0.00 0.00 0.00 90 999.5
20260904130528 74 173 0.0 0.0 0.00 0.00 0.00 91 999.5
20260904125758 74 173 0.0 0.0 0.00 0.00 0.00 92 999.5
20260904124757 73 173 0.0 0.0 0.00 0.00 0.00 93 999.4
20260904124528 73 173 0.0 0.0 0.00 0.00 0.00 93 999.4
20260904123758 72 173 0.0 0.0 0.00 0.00 0.00 93 999.4
20260904123258 72 173 0.0 0.0 0.00 0.00 0.00 92 999.4
20260904123027 72 173 0.0 0.0 0.00 0.00 0.00 92 999.3
20260904122257 72 173 0.0 0.0 0.00 0.00 0.00 92 999.3
20260904121758 72 173 0.0 0.0 0.00 0.00 0.00 92 999.3
20260904121257 72 173 0.0 0.0 0.00 0.00 0.00 92 999.2
20260904120756 72 173 0.0 0.0 0.00 0.00 0.00 92 999.2
20260904120257 71 173 0.0 0.0 0.00 0.00 0.00 92 999.1
20260904115756 71 173 0.0 0.0 0.00 0.00 0.00 92 999.1
20260904115257 71 173 0.0 0.0 0.00 0.00 0.00 92 999.0
20260904115029 72 173 0.0 0.0 0.00 0.00 0.00 92 999.0
20260904114256 72 173 0.0 0.0 0.00 0.00 0.00 92 998.8
20260904113756 72 173 0.0 0.0 0.00 0.00 0.00 91 998.8
20260904113527 72 173 0.0 0.0 0.00 0.00 0.00 91 998.8
20260904112755 72 173 0.0 0.0 0.00 0.00 0.00 91 998.8
20260904112255 72 173 0.0 0.0 0.00 0.00 0.00 91 998.8
20260904112025 72 173 0.0 0.0 0.00 0.00 0.00 91 998.8
20260904111256 72 173 0.0 0.0 0.00 0.00 0.00 91 998.7
20260904111026 72 173 0.0 0.0 0.00 0.00 0.00 91 998.7
20260904110254 72 173 0.0 0.0 0.00 0.00 0.00 91 998.8
20260904105754 72 173 0.0 0.0 0.00 0.00 0.00 91 998.7
20260904105255 72 173 0.0 0.0 0.00 0.00 0.00 91 998.7
20260904104754 72 173 0.0 0.0 0.00 0.00 0.00 91 998.7
20260904104254 72 173 0.0 0.0 0.00 0.00 0.00 91 998.7
20260904103754 72 173 0.0 0.0 0.00 0.00 0.00 90 998.6
20260904103253 72 173 0.0 0.0 0.00 0.00 0.00 90 998.6
20260904102755 72 173 0.0 0.0 0.00 0.00 0.00 90 998.6
20260904102254 72 173 0.0 0.0 0.00 0.00 0.00 90 998.6
20260904101755 72 173 0.0 0.0 0.00 0.00 0.00 90 998.5
20260904101253 72 173 0.0 0.0 0.00 0.00 0.00 90 998.6
20260904100755 72 173 0.0 0.0 0.00 0.00 0.00 90 998.5
20260904100254 72 173 0.0 0.0 0.00 0.00 0.00 89 998.6
20260904095754 72 173 0.0 0.0 0.00 0.00 0.00 89 998.4
20260904095253 72 173 0.0 0.0 0.00 0.00 0.00 89 998.5
20260904094754 73 173 0.0 0.0 0.00 0.00 0.00 89 998.6
20260904094252 73 173 0.0 0.0 0.00 0.00 0.00 89 998.5
20260904093752 73 173 0.0 0.0 0.00 0.00 0.00 89 998.5
20260904093254 73 173 0.0 0.0 0.00 0.00 0.00 89 998.3
20260904092753 73 173 0.0 0.0 0.00 0.00 0.00 89 998.2
20260904092253 73 173 0.0 0.0 0.00 0.00 0.00 88 998.2
20260904091752 73 173 0.0 0.0 0.00 0.00 0.00 88 998.2
20260904091251 73 173 0.0 0.0 0.00 0.00 0.00 88 998.1
20260904090753 73 173 0.0 0.0 0.00 0.00 0.00 88 998.1
20260904090253 73 173 0.0 0.0 0.00 0.00 0.00 88 998.1
20260904085753 73 173 0.0 0.0 0.00 0.00 0.00 88 998.1
20260904085253 73 173 0.0 0.0 0.00 0.00 0.00 88 998.1
20260904084753 73 173 0.0 0.0 0.00 0.00 0.00 88 998.1
20260904084251 73 173 0.0 0.0 0.00 0.00 0.00 88 998.1
20260904083750 73 173 0.0 0.0 0.00 0.00 0.00 88 998.0
20260904082754 74 173 0.0 0.0 0.00 0.00 0.00 87 998.0
20260904081752 74 173 0.0 0.0 0.00 0.00 0.00 87 997.8
20260904081252 74 173 0.0 0.0 0.00 0.00 0.00 87 997.9
20260904080752 74 173 0.0 0.0 0.00 0.00 0.00 87 997.7
20260904080250 74 173 0.0 0.0 0.00 0.00 0.00 87 997.8
20260904075750 74 173 0.0 0.0 0.00 0.00 0.00 86 997.7
20260904075251 74 173 0.0 0.0 0.00 0.00 0.00 86 997.7
20260904074751 74 173 0.0 0.0 0.00 0.00 0.00 86 997.8
20260904074252 74 173 0.0 0.0 0.00 0.00 0.00 85 997.7
20260904073750 74 173 0.0 0.0 0.00 0.00 0.00 85 997.7
20260904073251 74 173 0.0 0.0 0.00 0.00 0.00 85 997.7
20260904073021 75 173 0.0 0.0 0.00 0.00 0.00 85 997.7
20260904072251 75 173 0.0 0.0 0.00 0.00 0.00 85 997.8
20260904071750 75 173 0.0 0.0 0.00 0.00 0.00 85 997.9
20260904071249 75 173 0.0 0.0 0.00 0.00 0.00 85 997.9
20260904070751 75 173 0.0 0.0 0.00 0.00 0.00 84 997.9
20260904070249 75 173 0.0 0.0 0.00 0.00 0.00 84 998.0
20260904065750 75 173 0.0 0.0 0.00 0.00 0.00 84 998.0
20260904065520 75 173 0.0 0.0 0.00 0.00 0.00 84 998.0
20260904064749 75 173 0.0 0.0 0.00 0.00 0.00 84 998.0
20260904064249 75 173 0.0 0.0 0.00 0.00 0.00 83 998.0
20260904063749 76 173 0.0 0.0 0.00 0.00 0.00 83 998.0
20260904063249 76 173 0.0 0.0 0.00 0.00 0.00 83 998.1
20260904062748 76 173 0.0 0.0 0.00 0.00 0.00 83 998.1
20260904062252 76 173 0.0 0.0 0.00 0.00 0.00 83 998.0
20260904061749 76 173 0.0 0.0 0.00 0.00 0.00 83 998.0
20260904061248 76 173 0.0 0.0 0.00 0.00 0.00 82 998.1
20260904061019 76 199 0.0 0.0 0.00 0.00 0.00 82 998.1
20260904060249 76 199 0.0 0.0 0.00 0.00 0.00 82 998.1
20260904055748 76 199 0.0 0.0 0.00 0.00 0.00 81 998.0
20260904055247 77 199 0.0 0.0 0.00 0.00 0.00 81 998.0
20260904054747 77 199 0.0 0.0 0.00 0.00 0.00 81 998.0
20260904054247 77 199 0.0 0.0 0.00 0.00 0.00 80 998.0
20260904054019 77 199 0.0 0.0 0.00 0.00 0.00 80 998.0
20260904053247 77 199 0.0 0.0 0.00 0.00 0.00 80 998.0
20260904052750 77 199 0.0 0.0 0.00 0.00 0.00 79 998.0
20260904052248 78 199 0.0 0.0 0.00 0.00 0.00 79 997.9
20260904051748 78 199 0.0 0.0 0.00 0.00 0.00 79 997.8
20260904051248 78 199 0.0 0.0 0.00 0.00 0.00 78 997.9
20260904050747 78 199 0.0 0.0 0.00 0.00 0.00 78 997.7
20260904050246 78 199 0.0 0.0 0.00 0.00 0.00 77 997.8
20260904045748 78 199 0.0 0.0 0.00 0.00 0.00 77 997.8
20260904044746 78 199 0.0 0.0 0.00 0.00 0.00 77 997.8
20260904044247 79 199 0.0 0.0 0.00 0.00 0.00 76 997.7
20260904043746 79 199 0.0 0.0 0.00 0.00 0.00 76 997.9
20260904043245 79 199 0.0 0.0 0.00 0.00 0.00 76 997.9
20260904042746 79 199 0.0 0.0 0.00 0.00 0.00 75 997.8
20260904042246 79 199 0.0 0.0 0.00 0.00 0.00 75 997.8
20260904041747 80 199 0.0 0.0 0.00 0.00 0.00 74 997.7
20260904041245 80 199 0.0 0.0 0.00 0.00 0.00 75 997.8
20260904041017 80 199 0.0 0.0 0.00 0.00 0.00 74 997.8
20260904040246 80 199 0.0 0.0 0.00 0.00 0.00 74 997.8
20260904035747 80 199 0.0 0.0 0.00 0.00 0.00 73 997.9
20260904035246 80 199 0.0 0.0 0.00 0.00 0.00 73 998.0
20260904034744 80 199 0.0 0.0 0.00 0.00 0.00 73 997.8
20260904034244 81 199 0.0 0.0 0.00 0.00 0.00 72 997.9
20260904034015 81 199 0.0 0.0 0.00 0.00 0.00 72 997.8
20260904033245 81 199 0.0 0.0 0.00 0.00 0.00 71 997.8
20260904032744 81 199 0.0 0.0 0.00 0.00 0.00 71 997.7
20260904032245 82 199 0.0 0.0 0.00 0.00 0.00 71 997.9
20260904032016 82 199 0.0 0.0 0.00 0.00 0.00 70 997.8
20260904031245 82 199 0.0 0.0 0.00 0.00 0.00 70 997.8
20260904030744 82 199 0.0 0.0 0.00 0.00 0.00 69 997.7
20260904030244 83 199 0.0 0.0 0.00 0.00 0.00 69 997.8
20260904025744 83 199 0.0 0.0 0.00 0.00 0.00 68 997.7
20260904025244 83 199 0.0 0.0 0.00 0.00 0.00 67 997.7
20260904024745 84 199 0.0 0.0 0.00 0.00 0.00 66 997.7
20260904024244 85 199 0.0 0.0 0.00 0.00 0.00 65 997.6
20260904023744 85 199 0.0 0.0 0.00 0.00 0.00 64 997.7
20260904023243 85 199 0.0 0.0 0.00 0.00 0.00 63 997.6
20260904022743 86 199 0.0 0.0 0.00 0.00 0.00 63 997.5
20260904022244 86 199 0.0 0.0 0.00 0.00 0.00 62 997.4
20260904021743 86 199 0.0 0.0 0.00 0.00 0.00 61 997.3
20260904021243 87 199 0.0 0.0 0.00 0.00 0.00 61 997.3
20260904020743 88 199 0.0 0.0 0.00 0.00 0.00 59 997.3
20260904020242 88 199 0.0 0.0 0.00 0.00 0.00 58 997.2
20260904015744 89 199 0.0 0.0 0.00 0.00 0.00 56 997.2
20260904015242 89 199 0.0 0.0 0.00 0.00 0.00 56 997.0
20260904014741 89 199 0.0 0.0 0.00 0.00 0.00 56 997.0
20260904014243 90 199 0.0 0.0 0.00 0.00 0.00 54 997.0
20260904013741 90 199 0.0 0.0 0.00 0.00 0.00 54 996.9
20260904013513 91 199 0.0 0.0 0.00 0.00 0.00 53 996.8
20260904013012 91 199 0.0 2.0 0.00 0.00 0.00 53 996.8
20260904012241 91 199 0.0 2.0 0.00 0.00 0.00 52 996.8
20260904011741 92 217 0.0 0.0 0.00 0.00 0.00 51 996.7
20260904011513 92 217 0.0 0.0 0.00 0.00 0.00 51 996.6
20260904010740 92 217 0.0 0.0 0.00 0.00 0.00 50 996.6
20260904010242 93 217 0.0 3.0 0.00 0.00 0.00 50 996.4
20260904005741 93 217 0.0 3.0 0.00 0.00 0.00 49 996.5
20260904005513 93 217 0.0 3.0 0.00 0.00 0.00 48 996.5